Location: Poughquag
(41.6090°N, 73.6820°W)
Time: 17:04:14
(UTC-05:00)

XW-2F - Visible Passes

Search period start: 28 November 2023 00:00
Search period end: 08 December 2023 00:00
Orbit: 402 x 407 km, 97.4° (Epoch: 28 November)

Date Brightness Start Highest point End Pass type
(mag) Time Alt. Az. Time Alt. Az. Time Alt. Az.
28 Nov ? 06:06:43 10° E 06:07:16 10° E 06:07:49 10° ESE visible
28 Nov?18:08:32N18:08:32N18:00:35SSEvisible
05 Dec ? 06:27:16 10° NE 06:29:36 19° E 06:31:55 10° SE visible
07 Dec ? 06:19:29 10° ENE 06:21:21 15° E 06:23:12 10° SE visible
